User: anonymous   Login
Location: Sternwarte Stuttgart
(48.7670°N, 9.1830°E)
Time: 08:23:56
(UTC+02:00)
Language:

SKYMED 2 - Orbit

View from above orbital plane
View from above orbital plane
View from above satellite
View from above satellite

Ground track
Ground track

The orbit data is extracted from the following two-line orbital elements,

1 32376U 07059A   19294.44416663 -.00000165  00000-0 -14200-4 0  9996
2 32376  97.8917 116.0746 0001387  81.8937 278.2429 14.82147553642022
Epoch (UTC): 21 October 2019 10:39:35
Eccentricity: 0.0001387
inclination: 97.8917°
perigee height: 621 km
apogee height: 623 km
right ascension of ascending node: 116.0746°
argument of perigee: 81.8937°
revolutions per day: 14.82147553
mean anomaly at epoch: 278.2429°
orbit number at epoch: 64202

The dashed part of the orbit path shows where the satellite is in the earth's shadow,  

DLR